Location: Eschertshofen
(49.3064°N, 11.5756°E)
Time: 22:46:36
(UTC+00:00)

ATLAS 2AS CENTAUR R/B - Pass Details

Date: 18 September 2020
Orbit: 939 x 1273 km, 63.7° (Epoch: 27 October)

Event Time Altitude Azimuth Distance (km) Brightness Sun altitude
Exits shadow 22:59:06 14° 274° (W) 2,989 5.0 -39.3°
Maximum altitude 23:05:23 37° 336° (NNW) 1,872 4.2 -39.3°
Drops below altitude 10° 23:12:25 10° 42° (NE) 3,169 5.6 -39.3°
Sets 23:15:25 0° 51° (NE) 4,092 6.2 -39.3°
